Printer-friendly version

IAU Minor Planet Center

Minor Planet Center

MPEC 2000-W35: 2000 WL10

The following Minor Planet Electronic Circular may be linked-to from your own Web pages, but must not otherwise be redistributed electronically.


Read MPEC 2000-W34 Read MPEC 2000-W36


M.P.E.C. 2000-W35                                Issued 2000 Nov. 24, 21:36 UT

     The Minor Planet Electronic Circulars contain information on unusual
         minor planets and routine data on comets.  They are published
   on behalf of Commission 20 of the International Astronomical Union by the
          Minor Planet Center, Smithsonian Astrophysical Observatory,
                          Cambridge, MA 02138, U.S.A.

             Prepared using the Tamkin Foundation Computer Network

                              MPC@CFA.HARVARD.EDU
          URL http://cfa-www.harvard.edu/iau/mpc.html  ISSN 1523-6714

                                   2000 WL10

Observations:
     K00W10L* C2000 11 20.07004 21 47 27.67 +13 59 56.3          16.9 R      699
     K00W10L  C2000 11 20.08092 21 47 37.08 +14 00 20.4                      699
     K00W10L  C2000 11 20.09180 21 47 46.46 +14 00 42.4                      699
     K00W10L  C2000 11 20.10269 21 47 55.85 +14 01 05.6                      699
     K00W10L 1C2000 11 20.23082 21 49 47.06 +14 05 36.4                      696
     K00W10L 1C2000 11 20.23296 21 49 48.91 +14 05 40.7                      696
     K00W10L  C2000 11 21.06601 22 02 18.32 +14 34 25.8                      719
     K00W10L  C2000 11 21.06912 22 02 21.08 +14 34 32.0                      719
     K00W10L  C2000 11 21.83692 22 14 03.82 +14 59 03.4          16.3 R      587
     K00W10L  C2000 11 21.83889 22 14 05.61 +14 59 07.0                      587
     K00W10L  C2000 11 21.99580 22 16 33.17 +15 04 03.2          16.9 V      739
     K00W10L  C2000 11 22.00127 22 16 38.12 +15 04 13.1          16.3 V      739
     K00W10L  C2000 11 22.00565 22 16 42.09 +15 04 21.2          16.4 V      739
     K00W10L  C2000 11 22.06903 22 17 39.89 +15 06 09.2          15.4 V      726
     K00W10L  C2000 11 22.07484 22 17 45.17 +15 06 20.2          15.9 V      726
     K00W10L  C2000 11 22.07831 22 17 48.34 +15 06 25.9          16.4 V      726
     K00W10L  C2000 11 22.08005 22 17 49.99 +15 06 29.4          15.7 V      726
     K00W10L  C2000 11 22.08178 22 17 51.56 +15 06 31.8          16.2 V      726
     K00W10L  C2000 11 22.08352 22 17 53.14 +15 06 35.5          16.3 V      726
     K00W10L  C2000 11 22.08558 22 17 55.04 +15 06 39.5          16.3 V      726
     K00W10L  C2000 11 22.45284 22 23 38.03 +15 17 40.9                      345
     K00W10L  C2000 11 22.45684 22 23 41.74 +15 17 47.5                      345
     K00W10L  C2000 11 22.45841 22 23 43.15 +15 17 50.3                      345
     K00W10L  C2000 11 22.45912 22 23 43.80 +15 17 51.2                      345
     K00W10L  C2000 11 22.46075 22 23 45.31 +15 17 54.3                      345
     K00W10L  C2000 11 22.67548 22 27 08.49 +15 23 50.7          15.8 R      046
     K00W10L  C2000 11 22.67620 22 27 09.17 +15 23 52.5                      046
     K00W10L  C2000 11 22.67692 22 27 09.84 +15 23 54.4                      046
     K00W10L  C2000 11 22.67746 22 27 10.31 +15 23 55.0                      046
     K00W10L  C2000 11 22.67791 22 27 10.74 +15 23 55.9                      046
     K00W10L  C2000 11 22.67837 22 27 11.19 +15 23 56.5          16.0 R      046
     K00W10L 2C2000 11 22.84203 22 29 43.13 +15 28 26.6          16.8 V      012
     K00W10L 2C2000 11 22.84350 22 29 44.49 +15 28 28.8          16.6 V      012
     K00W10L 2C2000 11 22.84492 22 29 45.85 +15 28 31.1          17.0 V      012
     K00W10L 2C2000 11 22.84709 22 29 47.86 +15 28 34.6          16.8 V      012
     K00W10L 2C2000 11 22.84883 22 29 49.51 +15 28 37.6          16.4 V      012
     K00W10L  C2000 11 23.10086 22 33 48.13 +15 35 43.1          16.3 R      853
     K00W10L  C2000 11 23.10139 22 33 48.61 +15 35 43.7          16.3 R      853
     K00W10L  C2000 11 23.10236 22 33 49.54 +15 35 45.4          16.5 R      853
     K00W10L  C2000 11 23.11273 22 33 59.17 +15 36 01.6          16.1        919
     K00W10L  C2000 11 23.11608 22 34 02.33 +15 36 06.6          16.3        919
     K00W10L  C2000 11 23.11846 22 34 04.48 +15 36 09.8          16.0        919
     K00W10L  C2000 11 23.11944 22 34 05.34 +15 36 11.6          15.9        919
     K00W10L  C2000 11 23.23202 22 35 52.08 +15 39 20.5          17.0        608
     K00W10L  C2000 11 23.24277 22 36 02.06 +15 39 37.2          17.2        608
     K00W10L  C2000 11 23.25354 22 36 12.05 +15 39 53.8          17.1        608
     K00W10L  C2000 11 23.41448 22 38 43.22 +15 44 46.6          15.7 R      467
     K00W10L  C2000 11 23.41601 22 38 44.72 +15 44 48.7          15.7 R      467
     K00W10L  C2000 11 23.41812 22 38 48.37 +15 43 53.7          16.3 V      900
     K00W10L  C2000 11 23.41834 22 38 46.89 +15 44 52.9          15.2 R      467
     K00W10L  C2000 11 23.41977 22 38 49.94 +15 43 56.7                      900
     K00W10L  C2000 11 23.78698 22 44 38.28 +15 52 44.3                      046
     K00W10L  C2000 11 23.78743 22 44 38.74 +15 52 44.3                      557
     K00W10L  C2000 11 23.78779 22 44 39.05 +15 52 45.4          16.5 R      046
     K00W10L  C2000 11 23.78796 22 44 39.27 +15 52 45.0                      557
     K00W10L  C2000 11 23.78852 22 44 39.72 +15 52 46.2                      046
     K00W10L  C2000 11 23.78939 22 44 40.54 +15 52 47.5                      046
     K00W10L  C2000 11 23.78959 22 44 40.74 +15 52 47.1                      557
     K00W10L  C2000 11 23.79014 22 44 41.28 +15 52 47.6                      557
     K00W10L  C2000 11 24.01280 22 48 14.16 +15 58 02.7          16.8 V      726
     K00W10L  C2000 11 24.01627 22 48 17.55 +15 58 07.0          16.1 V      726
     K00W10L  C2000 11 24.01871 22 48 19.84 +15 58 11.0          16.3 V      726
     K00W10L  C2000 11 24.02219 22 48 23.07 +15 58 16.2          16.5 V      726
     K00W10L  C2000 11 24.02566 22 48 26.35 +15 58 20.6          16.2 V      726
     K00W10L  C2000 11 24.02913 22 48 29.66 +15 58 25.0          16.4 V      726
     K00W10L  C2000 11 24.10384 22 49 40.53 +16 00 17.4                      670
     K00W10L  C2000 11 24.13182 22 50 06.62 +16 00 54.6                      670
     K00W10L  C2000 11 24.14864 22 50 21.78 +16 01 07.3          16.4 V      918
     K00W10L  C2000 11 24.15177 22 50 24.67 +16 01 11.1          16.2 V      918
     K00W10L  C2000 11 24.15538 22 50 28.08 +16 01 15.9          16.1 V      918
     K00W10L  C2000 11 24.16094 22 50 33.27 +16 01 23.2          16.2 V      918
     K00W10L  C2000 11 24.16570 22 50 38.07 +16 01 39.3                      670
     K00W10L  C2000 11 24.16692 22 50 38.89 +16 01 31.1          16.3 V      918
     K00W10L  C2000 11 24.17223 22 50 43.89 +16 01 37.9          16.2 V      918
     K00W10L  C2000 11 24.22675 22 51 34.94 +16 02 57.7          16.1 R      854
     K00W10L  C2000 11 24.22791 22 51 36.05 +16 02 58.7                      854
     K00W10L  C2000 11 24.22927 22 51 37.32 +16 03 00.3                      854

Observer details:
012 Uccle.  Observer T. Pauwels.  0.85-m f/2.5 Schmidt + CCD.
046 Klet.  Observers M. Tichy, M. Kocer.  0.57-m f/5.2 reflector + CCD.
345 Sobaeksan Optical Astronomy Observatory.  Observers J.-W. Lee, S.-L. Kim,
    J.-H. Youn.  0.61-m reflector + CCD.
467 Auckland Observatory.  Observers I. P. Griffin, J. Dunlop.  0.35-m
    reflector + CCD.
557 Ondrejov.  Observer P. Kusnirak.  0.65-m f/3.6 reflector + CCD.
587 Sormano.  Observer F. Manca.  0.5-m reflector + CCD.
608 Haleakala-NEAT/MSSS.  Observers E. F. Helin, S. Pravdo, K. Lawrence,
    P. Kervin, R. Maeda, M. Skinner.  1.2-m reflector + CCD.
670 Camarillo.  Observer J. E. Rogers.  0.30-m f/6.7 Helin Telescope + CCD.
696 Whipple Observatory, Mt. Hopkins.  Observers C. W. Hergenrother,
    T. B. Spahr.  1.2-m reflector + CCD.
699 Lowell Observatory-LONEOS.  Observer M. E. Van Ness.  Measurer B. W. Koehn.
    0.59-m LONEOS Schmidt + CCD.
719 Etscorn Observatory.  Observer D. A. Klinglesmith III.  0.355-m
    Schmidt-Cassegrain + CCD.
726 Brainerd.  Observer J. Wentworth.  0.28-m Schmidt-Cassegrain + CCD.
739 Sunflower Observatory, Olathe.  Observer L. Robinson.  0.25-m
    Schmidt-Cassegrain + CCD.
853 Biosphere 2 Observatory.  Observer G. J. Garradd.  0.6-m f/8.1 reflector
    + CCD.
854 Sabino Canyon Observatory, Tucson.  Observer J. E. McGaha.  0.30-m f/6.1
    Schmidt-Cassegrain + CCD.
900 Moriyama.  Observer Y. Ikari.  0.25-m f/6.3 reflector + CCD.
918 Badlands Observatory, Quinn.  Observer R. Dyvig.  0.66-m f/4.8 reflector
    + CCD.
919 Desert Beaver Observatory.  Observer K. W. Yeung.  0.45-m reflector + CCD.

Orbital elements:
2000 WL10
Epoch 2000 Nov. 12.0 TT = JDT 2451860.5                 Williams
M   4.27450              (2000.0)            P               Q
n   0.18841577     Peri.  114.30966     +0.97878961     -0.11990757
a   3.0134076      Node   252.92276     +0.05624762     +0.93695048
e   0.6985250      Incl.   10.00728     +0.19699521     +0.32824681
P   5.23           H   17.8           G   0.15
From 77 observations 2000 Nov. 20-24.

Ephemeris:
2000 WL10                a,e,i = 3.01, 0.70, 10                  q = 0.9085
Date    TT    R. A. (2000) Decl.     Delta      r     Elong.  Phase     V
2000 11 22    22 16.60   +15 04.5    0.159    1.030   100.9    70.3    16.3
2000 11 27    23 35.22   +16 47.4    0.163    1.065   114.8    57.2    16.1
2000 12 02    00 46.08   +16 51.0    0.183    1.104   126.3    46.0    16.1
2000 12 07    01 41.06   +15 59.7    0.215    1.145   133.8    38.4    16.3
2000 12 12    02 21.30   +14 58.4    0.257    1.188   137.7    33.9    16.6
2000 12 17    02 50.87   +14 06.5    0.306    1.232   139.1    31.5    17.0
2000 12 22    03 13.31   +13 28.4    0.360    1.278   139.0    30.4    17.4
2000 12 27    03 31.07   +13 03.3    0.419    1.324   137.8    29.9    17.8
2001 01 01    03 45.71   +12 48.9    0.482    1.372   136.0    29.8    18.2

2001 01 11    04 09.35   +12 43.1    0.618    1.468   131.4    30.2    18.9
2001 01 21    04 28.83   +12 56.3    0.768    1.564   126.0    30.6    19.5
2001 01 31    04 46.34   +13 19.2    0.929    1.661   120.3    30.8    20.1
2001 02 10    05 02.94   +13 45.8    1.102    1.756   114.4    30.8    20.6
2001 02 20    05 19.10   +14 11.8    1.284    1.851   108.3    30.5    21.0
2001 03 02    05 35.10   +14 34.7    1.475    1.944   102.3    29.9    21.4
2001 03 12    05 51.04   +14 52.7    1.672    2.036    96.3    29.0    21.7
2001 03 22    06 06.93   +15 04.8    1.873    2.126    90.3    28.0    22.0

Gareth V. Williams           (C) Copyright 2000 MPC           M.P.E.C. 2000-W35

Read MPEC 2000-W34 Read MPEC 2000-W36


Our Web policy. Index to the CBAT/MPC/ICQ pages.


Valid HTML 4.01!